TimeEDT,TemperatureF,Dew PointF,Humidity,Sea Level PressureIn,VisibilityMPH,Wind Direction,Wind SpeedMPH,Gust SpeedMPH,PrecipitationIn,Events,Conditions,WindDirDegrees,DateUTC
12:15 AM,59.0,50.0,72,29.98,10.0,Calm,Calm,-,N/A,,Overcast,0,2012-10-02 04:15:00
12:35 AM,59.0,50.0,72,29.99,10.0,Calm,Calm,-,N/A,,Overcast,0,2012-10-02 04:35:00
12:55 AM,59.0,50.0,72,29.98,10.0,Calm,Calm,-,N/A,,Overcast,0,2012-10-02 04:55:00
1:15 AM,59.0,50.0,72,29.98,2.5,Calm,Calm,-,N/A,,Haze,0,2012-10-02 05:15:00
1:35 AM,59.0,51.8,77,29.98,7.0,Calm,Calm,-,N/A,,Overcast,0,2012-10-02 05:35:00
1:55 AM,59.0,50.0,72,29.99,4.0,Calm,Calm,-,N/A,,Haze,0,2012-10-02 05:55:00
2:15 AM,59.0,51.8,77,29.99,7.0,Calm,Calm,-,N/A,Rain,Light Rain,0,2012-10-02 06:15:00
2:35 AM,59.0,51.8,77,29.98,10.0,Calm,Calm,-,N/A,,Overcast,0,2012-10-02 06:35:00
2:55 AM,59.0,51.8,77,29.99,10.0,Calm,Calm,-,N/A,,Overcast,0,2012-10-02 06:55:00
3:15 AM,59.0,51.8,77,29.98,4.0,Calm,Calm,-,N/A,,Haze,0,2012-10-02 07:15:00
3:35 AM,59.0,51.8,77,29.98,7.0,Calm,Calm,-,N/A,,Overcast,0,2012-10-02 07:35:00
3:55 AM,59.0,51.8,77,29.99,10.0,Calm,Calm,-,N/A,,Overcast,0,2012-10-02 07:55:00
4:15 AM,57.2,53.6,88,29.99,10.0,Calm,Calm,-,N/A,,Overcast,0,2012-10-02 08:15:00
4:35 AM,59.0,51.8,77,29.99,10.0,Calm,Calm,-,N/A,,Overcast,0,2012-10-02 08:35:00
4:55 AM,59.0,51.8,77,29.99,10.0,ENE,3.5,-,N/A,,Overcast,60,2012-10-02 08:55:00
5:15 AM,59.0,51.8,77,29.99,10.0,Calm,Calm,-,N/A,,Overcast,0,2012-10-02 09:15:00
5:35 AM,59.0,53.6,82,29.99,10.0,Calm,Calm,-,N/A,,Overcast,0,2012-10-02 09:35:00
5:55 AM,59.0,51.8,77,29.99,10.0,East,4.6,-,N/A,,Overcast,90,2012-10-02 09:55:00
6:15 AM,59.0,51.8,77,29.98,10.0,ENE,3.5,-,N/A,,Overcast,60,2012-10-02 10:15:00
6:35 AM,59.0,51.8,77,29.99,7.0,Calm,Calm,-,N/A,,Overcast,0,2012-10-02 10:35:00
6:55 AM,59.0,51.8,77,29.99,10.0,Calm,Calm,-,N/A,,Overcast,0,2012-10-02 10:55:00
7:15 AM,59.0,51.8,77,29.99,10.0,Calm,Calm,-,N/A,,Overcast,0,2012-10-02 11:15:00
7:35 AM,59.0,51.8,77,29.99,10.0,Calm,Calm,-,N/A,,Overcast,0,2012-10-02 11:35:00
7:55 AM,59.0,51.8,77,29.99,10.0,Calm,Calm,-,N/A,Rain,Light Rain,0,2012-10-02 11:55:00
8:15 AM,59.0,51.8,77,30.01,7.0,Calm,Calm,-,N/A,Rain,Light Rain,0,2012-10-02 12:15:00
8:35 AM,59.0,53.6,82,30.01,10.0,Calm,Calm,-,N/A,Rain,Light Rain,0,2012-10-02 12:35:00
8:55 AM,59.0,53.6,82,30.01,4.0,North,3.5,-,0.04,Rain,Heavy Rain,10,2012-10-02 12:55:00
9:15 AM,59.0,53.6,82,30.01,5.0,North,3.5,-,0.02,Rain,Light Rain,10,2012-10-02 13:15:00
9:35 AM,59.0,53.6,82,30.00,7.0,NE,9.2,-,0.02,Rain,Light Rain,50,2012-10-02 13:35:00
9:55 AM,59.0,55.4,88,30.01,5.0,NE,5.8,-,0.04,Rain,Rain,50,2012-10-02 13:55:00
10:15 AM,59.0,55.4,88,30.02,3.0,NNE,4.6,-,0.04,Rain,Heavy Rain,30,2012-10-02 14:15:00
10:35 AM,59.0,55.4,88,30.01,3.0,North,5.8,-,0.10,Rain,Rain,10,2012-10-02 14:35:00
10:55 AM,59.0,55.4,88,30.01,1.5,East,5.8,-,0.24,Rain,Heavy Rain,80,2012-10-02 14:55:00
11:15 AM,57.2,53.6,88,30.03,0.8,East,4.6,-,0.25,Rain,Heavy Rain,80,2012-10-02 15:15:00
11:35 AM,57.2,53.6,88,30.02,4.0,ENE,9.2,-,0.38,Rain,Rain,60,2012-10-02 15:35:00
11:55 AM,57.2,53.6,88,30.01,5.0,NE,6.9,-,0.43,Rain,Rain,40,2012-10-02 15:55:00
12:15 PM,57.2,53.6,88,30.02,3.0,NNW,4.6,-,0.08,Rain,Heavy Rain,340,2012-10-02 16:15:00
12:35 PM,57.2,53.6,88,30.02,1.2,North,3.5,-,0.31,Rain,Heavy Rain,360,2012-10-02 16:35:00
12:55 PM,57.2,55.4,94,30.03,0.8,Calm,Calm,-,0.58,Rain,Heavy Rain,0,2012-10-02 16:55:00
1:15 PM,57.2,55.4,94,30.00,1.0,NE,5.8,-,0.25,Rain,Heavy Rain,50,2012-10-02 17:15:00
1:35 PM,59.0,55.4,88,30.01,5.0,NNE,6.9,-,0.26,Rain,Light Rain,30,2012-10-02 17:35:00
1:55 PM,59.0,55.4,88,29.99,7.0,NE,6.9,-,0.26,,Overcast,40,2012-10-02 17:55:00
2:15 PM,59.0,55.4,88,29.99,5.0,NNE,3.5,-,0.01,Rain,Rain,30,2012-10-02 18:15:00
2:35 PM,59.0,55.4,88,29.99,7.0,NNE,3.5,-,0.03,Rain,Rain,30,2012-10-02 18:35:00
2:55 PM,59.0,55.4,88,29.99,0.8,NE,5.8,-,0.18,Rain,Heavy Rain,50,2012-10-02 18:55:00
3:15 PM,59.0,55.4,88,29.98,3.0,NNE,6.9,-,0.03,Rain,Heavy Rain,30,2012-10-02 19:15:00
3:35 PM,59.0,55.4,88,29.98,2.0,NNE,5.8,-,0.12,Rain,Heavy Rain,20,2012-10-02 19:35:00
3:55 PM,59.0,55.4,88,29.98,1.2,NNE,6.9,-,0.27,Rain,Heavy Rain,30,2012-10-02 19:55:00
4:15 PM,59.0,55.4,88,29.98,5.0,NNE,4.6,-,0.01,Rain,Light Rain,30,2012-10-02 20:15:00
4:35 PM,59.0,57.2,94,29.97,5.0,NE,5.8,-,0.02,Rain,Light Rain,50,2012-10-02 20:35:00
4:55 PM,60.8,57.2,88,29.96,5.0,NE,6.9,-,0.02,,Overcast,50,2012-10-02 20:55:00
5:15 PM,60.8,59.0,94,29.96,4.0,Calm,Calm,-,N/A,Rain,Light Rain,0,2012-10-02 21:15:00
5:35 PM,60.8,59.0,94,29.96,7.0,Calm,Calm,-,0.01,Rain,Light Rain,0,2012-10-02 21:35:00
5:55 PM,60.8,59.0,94,29.96,7.0,Calm,Calm,-,0.01,Rain,Light Rain,0,2012-10-02 21:55:00
6:15 PM,60.8,59.0,94,29.96,5.0,Calm,Calm,-,N/A,Rain,Light Rain,0,2012-10-02 22:15:00
6:35 PM,60.8,59.0,94,29.97,4.0,North,4.6,-,N/A,,Overcast,10,2012-10-02 22:35:00
6:55 PM,60.8,59.0,94,29.97,4.0,NNE,4.6,-,N/A,,Overcast,20,2012-10-02 22:55:00
7:15 PM,60.8,59.0,94,29.98,2.5,NE,4.6,-,N/A,,Overcast,40,2012-10-02 23:15:00
7:35 PM,60.8,59.0,94,29.98,2.0,NNE,6.9,-,N/A,,Overcast,20,2012-10-02 23:35:00
8:15 PM,60.8,59.0,94,29.99,1.5,NNE,4.6,-,N/A,,Overcast,20,2012-10-03 00:15:00
8:35 PM,60.8,59.0,94,29.99,1.0,NE,5.8,-,N/A,,Overcast,40,2012-10-03 00:35:00
8:55 PM,60.8,59.0,94,29.99,0.8,NNE,5.8,-,N/A,,Overcast,30,2012-10-03 00:55:00
9:15 PM,60.8,59.0,94,30.00,0.8,NNE,4.6,-,N/A,,Overcast,20,2012-10-03 01:15:00
9:35 PM,60.8,59.0,94,29.99,0.8,NNE,5.8,-,N/A,,Overcast,30,2012-10-03 01:35:00
9:55 PM,60.8,59.0,94,30.00,0.5,NNE,4.6,-,N/A,Fog,Fog,20,2012-10-03 01:55:00
10:15 PM,60.8,59.0,94,30.01,0.5,North,4.6,-,N/A,Fog,Fog,10,2012-10-03 02:15:00
10:35 PM,60.8,59.0,94,30.01,0.5,NNE,4.6,-,N/A,Fog,Fog,30,2012-10-03 02:35:00
10:55 PM,60.8,59.0,94,30.01,0.5,NE,4.6,-,N/A,Fog,Fog,40,2012-10-03 02:55:00
11:15 PM,60.8,59.0,94,30.01,0.5,NNE,5.8,-,N/A,Fog,Fog,30,2012-10-03 03:15:00
11:35 PM,60.8,59.0,94,30.01,0.5,NE,6.9,-,N/A,Rain,Light Rain,40,2012-10-03 03:35:00
11:55 PM,60.8,59.0,94,30.01,0.5,NNE,4.6,-,N/A,Fog,Fog,30,2012-10-03 03:55:00